User: anonymous   Login
Location: Reading
(52.0000°N, 0.0000°E)
Time: 17:07:06
(UTC+01:00)
Language:

Iridium 41 - Orbit

View from above orbital plane
View from above orbital plane
View from above satellite
View from above satellite

Ground track
Ground track

The orbit data is extracted from the following two-line orbital elements,

1 25040U 97069B   17292.22845311  .00000123  00000-0  37026-4 0  9997
2 25040  86.3956 330.1172 0002061  93.0859 267.0572 14.34225904 44090
Epoch (UTC): 19 October 2017 05:28:58
Eccentricity: 0.0002061
inclination: 86.3956°
perigee height: 776 km
apogee height: 779 km
right ascension of ascending node: 330.1172°
argument of perigee: 93.0859°
revolutions per day: 14.34225904
mean anomaly at epoch: 267.0572°
orbit number at epoch: 4409

The dashed part of the orbit path shows where the satellite is in the earth's shadow,  

DLR